#timestamp,LO_Frequency,Hit,StdDev 
1627524015.6,286046999.6,N
1627524035.5,286046998.8,N
1627524055.3,286046996.6,N
1627524075.1,286046996.8,N
1627524095.9,286046997.1,N
1627524115.7,286046997.2,N
1627524135.5,286046997.4,N
1627524155.4,286046997.7,N
1627524175.2,286046995.2,N
1627524195.1,286046995.6,N
1627524196.0,286046995.6,N
1627524215.8,286046995.1,N
1627524235.6,286046995.7,N
1627524255.5,286046996.4,N
1627524275.3,286046993.7,Y
1627524295.2,286046995.7,P
1627524315.9,286046995.3,P
1627524335.7,286046995.1,P
1627524355.6,286046998.0,N
1627524375.4,286046995.3,Y
1627524395.2,286047000.7,P
1627524415.1,286046998.2,N
1627524416.0,286046998.2,N
1627524435.8,286047001.1,N
1627524455.7,286047000.7,N
1627524475.5,286047000.3,N
1627524495.3,286046998.2,N
1627524515.2,286047001.0,N
1627524535.9,286046999.8,N
1627524555.7,286047000.0,N
1627524575.6,286047000.9,N
1627524595.4,286046998.6,N
1627524615.2,286046998.1,N
1627524635.1,286046998.2,N
1627524636.0,286046998.2,N
1627524655.8,286046998.5,N
1627524675.7,286046998.1,N
1627524695.5,286046998.5,N
1627524715.3,286046998.7,N
1627524735.2,286046998.5,N
1627524755.0,286046998.2,N
1627524755.9,286046998.2,N
1627524775.8,286047000.5,N
1627524795.6,286047000.8,N
1627524815.4,286047000.0,N
1627524835.3,286047002.2,N
1627524855.1,286047000.0,N
1627524875.8,286046999.7,N
1627524895.7,286047000.2,N
1627524915.5,286046999.9,N
1627524935.4,286047000.0,N
1627524955.2,286046999.7,N
1627524975.0,286047002.3,N
1627524975.9,286047002.3,N
1627524995.8,286047001.5,N
1627525015.6,286047004.1,Y
1627525035.5,286047004.3,P
1627525055.3,286047001.6,N
1627525075.1,286047002.2,N
1627525095.9,286047000.1,N
1627525115.7,286047002.3,N
1627525135.5,286047000.1,N
1627525155.4,286046999.8,N
1627525175.2,286047002.0,N
1627525195.1,286047002.3,N
1627525196.0,286047002.3,N
1627525215.8,286047001.8,N
1627525235.6,286047001.9,N
1627525255.5,286047004.0,Y
1627525275.3,286047000.3,P
1627525295.1,286047000.6,N
1627525315.9,286046999.7,N
1627525335.7,286047000.0,N
1627525355.6,286047001.2,N
1627525375.4,286046998.6,N
1627525395.2,286046998.1,N
1627525415.1,286047000.4,N
1627525416.0,286047000.4,N
1627525435.8,286047001.1,N
1627525455.6,286046998.3,N
1627525475.5,286047001.1,N
1627525495.3,286047000.5,N
1627525515.2,286047000.3,N
1627525535.9,286046999.8,N
1627525555.7,286047002.5,N
1627525575.6,286047002.5,N
1627525595.4,286047000.7,N
1627525615.3,286047000.7,N
1627525635.1,286047000.4,N
1627525636.0,286047000.4,N
1627525655.8,286047000.3,N
1627525675.7,286047000.6,N
1627525695.5,286047000.3,N
1627525715.3,286047002.7,N
1627525735.2,286047001.5,N
1627525755.0,286047002.7,N
1627525755.9,286047002.7,N
1627525775.8,286047000.3,N
1627525795.6,286047000.1,N
1627525815.4,286046999.7,N
1627525835.3,286047001.6,N
1627525855.1,286047001.4,N
1627525875.8,286047001.6,N
1627525895.7,286047001.3,N
1627525915.5,286047001.7,N
1627525935.4,286047001.6,N
1627525955.2,286047004.3,Y
1627525975.0,286047002.0,P
1627525975.9,286047002.0,P
1627525995.8,286047001.3,N
1627526015.6,286047002.5,Y
1627526035.5,286047000.0,P
1627526055.3,286047000.3,N
1627526075.1,286047000.0,N
1627526095.9,286046998.7,N
1627526115.7,286046998.9,N
1627526135.5,286046999.0,N
1627526155.4,286046998.9,N
1627526175.2,286046998.5,N
1627526195.0,286046998.8,N
1627526195.9,286046998.8,N
1627526215.8,286046998.4,N
1627526235.6,286046998.6,N
1627526255.5,286046998.6,N
1627526275.3,286046999.1,N
1627526295.1,286046999.0,N
1627526315.9,286047000.4,N
1627526335.7,286047000.9,N
1627526355.5,286047000.5,N
1627526375.4,286046999.7,N
1627526395.2,286047002.0,N
1627526415.1,286047002.0,N
1627526416.0,286047002.0,N
1627526435.8,286047004.0,Y
1627526455.6,286047004.0,P
1627526475.5,286047001.8,N
1627526495.3,286046999.9,N
1627526515.1,286047000.1,N
1627526535.9,286046999.9,N
1627526555.7,286047004.4,N
1627526575.6,286047004.3,N
1627526595.4,286047004.3,N
1627526615.2,286047003.3,N
1627526635.1,286047005.6,N
1627526636.0,286047005.6,N
1627526655.8,286047005.7,N
1627526675.6,286047004.5,N
1627526695.5,286047007.1,Y
1627526715.3,286047006.0,P
1627526735.2,286047004.0,N
1627526755.9,286047003.6,N
1627526775.7,286047003.7,Y
1627526795.6,286047001.2,P
1627526815.4,286047001.2,N
1627526835.2,286046999.4,N
1627526855.1,286046999.3,N
1627526856.0,286046999.3,N
1627526875.8,286046999.4,N
1627526895.7,286046997.0,N
1627526915.5,286046999.2,N
1627526935.3,286046996.6,N
1627526955.2,286046997.0,N
1627526975.0,286046997.0,N
1627526975.9,286046997.0,N
1627526995.7,286046996.9,N
1627527015.6,286046999.6,N
1627527035.4,286046998.8,N
1627527055.3,286046999.6,N
1627527075.1,286046996.7,N
1627527076.0,286046996.7,N
1627527095.8,286046997.0,N
1627527115.7,286046997.3,N
1627527135.5,286046997.5,N
1627527155.4,286046997.6,N
1627527175.2,286046995.6,N
1627527195.0,286046996.2,N
1627527195.9,286047011.9,Y
1627527215.8,286046997.9,P
1627527235.6,286046997.9,P
1627527255.4,286046997.9,P
1627527275.3,286046998.0,Y
1627527295.1,286046996.9,P
1627527315.9,286046995.0,P
1627527335.7,286046994.9,P
1627527355.5,286046997.4,N
1627527375.4,286046997.5,N
1627527395.2,286046997.2,N
1627527415.0,286046996.5,Y
1627527416.0,286046996.5,P
1627527435.8,286047000.5,P
1627527455.6,286047001.1,N
1627527475.5,286046998.4,N
1627527495.3,286046999.1,N
1627527515.1,286046996.5,N
1627527535.9,286046997.6,N
1627527555.7,286046997.7,N
1627527575.6,286046995.3,N
1627527595.4,286046997.7,N
